Simultaneous Nadir Overpasses (SNOs) Predictions

Prediction of SNOs between GOES-15 and NPP Satellite Orbit:

Table of predicted SNOs for the next 14.0 days since TLE Epoch: 10/23/2015
Index Date Time (GOES-15) GOES-15 Lat,Lon NPP Lat,Lon Distance(km) Time Diff (sec)
1 10/23/2015 22:14:19 -0.17,-134.71 0.55,-131.36 380.77 80
2 10/25/2015 10:33:26 0.14,-134.78 0.57,-136.64 212.12 80
3 10/26/2015 10:17:21 0.16,-134.82 -0.44,-132.11 308.97 80
4 10/27/2015 22:36:37 -0.13,-134.87 -0.70,-137.43 291.48 80
5 10/28/2015 22:20:32 -0.15,-134.91 0.31,-132.90 229.54 80
6 10/30/2015 10:39:39 0.12,-134.98 0.81,-138.18 363.87 80
7 10/31/2015 10:23:34 0.13,-135.01 -0.20,-133.65 156.53 80
8 11/01/2015 22:42:49 -0.10,-135.05 -0.99,-138.95 445.47 80
9 11/02/2015 22:26:44
